Regional Weather Roundup
Issued by NWS

Home | Current Version | Previous Version | Text Only | Print | Product List | Glossary Off
Versions: 1 2 3 4 5 6 7 8 9 10 11 12 13 14 15 16 17 18 19 20 21 22 23 24 25 26 27 28 29 30 31 32 33 34 35 36 37 38 39 40 41 42 43 44 45 46 47 48 49 50

000
ASUS43 KLOT 241702
RWRIL

ILLINOIS REGIONAL WEATHER ROUNDUP
NATIONAL WEATHER SERVICE CHICAGO/ROMEOVILLE IL
1200 PM CDT SUN MAY 24 2015

NOTE: "FAIR" INDICATES FEW OR NO CLOUDS BELOW 12,000 FEET WITH NO
SIGNIFICANT WEATHER AND/OR OBSTRUCTIONS TO VISIBILITY.

* THESE STATIONS ARE NOT UNDER NWS QUALITY CONTROL. THEY ALSO MAY NOT
  REPORT WEATHER SUCH AS PRECIPITATION OR FOG.

ILZ001-002-007-009-015-016-024-241800-
NORTHWEST ILLINOIS

CITY           SKY/WX    TMP DP  RH WIND       PRES   REMARKS
MOLINE         CLOUDY    66  59  78 E13       29.99F
STERLING*      CLOUDY    66  57  72 E16       30.04F
$$

ILZ003-004-008-010-011-017-018-241800-
NORTH CENTRAL ILLINOIS

CITY           SKY/WX    TMP DP  RH WIND       PRES   REMARKS
ROCKFORD       CLOUDY    68  55  63 SE10      30.10F
$$

ILZ005-006-012>014-019>023-241800-
NORTHEAST ILLINOIS

CITY           SKY/WX    TMP DP  RH WIND       PRES   REMARKS
CHICAGO-OHARE  CLOUDY    72  51  47 E8        30.12F
CHICAGO-MIDWAY CLOUDY    74  53  48 E9        30.12F
AURORA         CLOUDY    70  54  56 E12       30.11F
WAUKEGAN       CLOUDY    62  52  69 E7        30.14F
DUPAGE AIRPORT CLOUDY    71  53  52 E9        30.11F
WHEELING       CLOUDY    69  51  52 E6        30.14F
NORTHERLY ISL    N/A     61  50  67 NE3         N/A
$$

LMZ740>746-241800-
SOUTHERN LAKE MICHIGAN

STATION/POSITION SKY/WX   TEMP    WIND        PRES    VSBY  WAVE
                          AIR SEA DIR/SP/G                  HT/PER
                          (F)     (DEG/KT/KT) (MB)    (MI)  (FT/S)
SOUTHERN BUOY              47 38  120/  4/  4 1022.7S         0
HARRISON CRIB              59     120/  3/  4   N/A
BURNHAM HARBOR             61      30/  2       N/A
CALUMET HARBOR             64      90/  8/  9   N/A
BURNS HARBOR               73     140/  5/ 10 1021.7F
MICHIGAN CITY              69     110/  6/  9   N/A
MICHIGAN CITY 6N           61 54  130/  6/  6   N/A           0
ST. JOSEPH                 63 55  190/  6/  8   N/A           0
$$

ILZ025>027-034>036-040-047-049-050-058-095>099-241800-
WEST-CENTRAL ILLINOIS

CITY           SKY/WX    TMP DP  RH WIND       PRES   REMARKS
QUINCY         CLOUDY    75  63  66 S14G22    29.96F
$$

ILZ028>032-037-038-041>044-048-051>054-059>061-241800-
CENTRAL ILLINOIS

CITY           SKY/WX    TMP DP  RH WIND       PRES   REMARKS
DECATUR        PTSUNNY   81  64  56 S10G23    30.07F HX  82
PEORIA         CLOUDY    80  61  52 S8        30.02F HX  81
SPRINGFIELD    CLOUDY    79  63  57 S20G25    30.04F HX  80
TAYLORVILLE    NOT AVBL
$$

ILZ033-039-045-046-055>057-062-063-241800-
EAST-CENTRAL ILLINOIS

CITY           SKY/WX    TMP DP  RH WIND       PRES   REMARKS
CHAMPAIGN      MOSUNNY   84  59  42 S24G31    30.09F HX  84
MATTOON        MOSUNNY   79  61  53 S14G22    30.11F HX  80
$$

ILZ079-100>102-241800-
SOUTHWEST ILLINOIS

CITY           SKY/WX    TMP DP  RH WIND       PRES   REMARKS
ALTON          PTSUNNY   81  66  61 S13G21    30.03F HX  83
BELLEVILLE     MOSUNNY   82  66  58 S23G30    30.03F HX  84
CAHOKIA*       MOSUNNY   84  62  47 S18G29    30.02F HX  85
$$

ILZ064>066-069>071-074>076-080>082-084>086-088>090-092>094-241800-
SOUTH-CENTRAL ILLINOIS

CITY           SKY/WX    TMP DP  RH WIND       PRES   REMARKS
CARBONDALE     MOSUNNY   82  65  56 S21G29    30.08F HX  84
MARION         MOSUNNY   82  66  57 S14G22    30.10F HX  85
MT. VERNON     PTSUNNY   82  64  54 S15G22    30.11S HX  84
$$

ILZ067-068-072-073-078-083-087-091-241800-
SOUTHEAST ILLINOIS

CITY           SKY/WX    TMP DP  RH WIND       PRES   REMARKS
LAWRENCEVILLE  SUNNY     82  58  43 S17G25    30.14F HX  82
$$

ABBREVIATIONS USED IN REMARKS
   TC - TEMPERATURE IN CELSIUS
  WCI - WIND CHILL INDEX
   HX - HEAT INDEX
  VSB - VISIBILITY
$$




USA.gov is the U.S. government's official web portal to all federal, state and local government web resources and services.